weather.gov     
National Weather Service

Terminal Aerodrome Forecast
NWS Homepage
This page is being discontinued on March 12, 2014.
The same data is available at this site. Please update your bookmarks.
Thank you, and we apologize for the inconvenience.
Please send an email to SR-SRH.Webmaster@noaa.gov with any concerns.


Current Version
Previous Version:    01  02  03  04  05  06  07  08  09  10  11  12  13  14  15  16  17  18  19  20  21  22  23  
[Printable]
605
FTAK31 PAJN 231700
TAFAKT
TAF
PAKT 231720Z 2318/2418 32005KT P6SM VCSH BKN050 OVC100
     FM240000 32008KT P6SM SCT050 SCT100
     FM240600 VRB03KT P6SM FEW005 SCT050
     FM241700 32005KT P6SM FEW005 SCT050 BKN100
      AMD LTD TO CLD VIS AND WIND 2406/2415=


U.S. Dept. of Commerce
NOAA National Weather Service
1325 East West Highway
Silver Spring, MD 20910
E-mail: w-nws.webmaster@noaa.gov
Page last modified: May 16, 2007
NATIONAL WEATHER SERVICE: for Safety, for Work, for Fun - FOR LIFE